Flag for U.S.A. Weather past 2 weeks in Warminster Township, Pennsylvania, U.S.A.

Now
32 °F

Overcast.


Feels Like: 24 °F
Forecast: 24 / 29 °F
Wind: 10 mph from Northeast

Location: Doylestown Airport

Current Time: Jan 25, 2015 at 10:28:25 PM

Latest Report: Jan 25, 2015 at 9:54 PM


Visibility: 10 mi

Pressure: 29.95 "Hg

Humidity: 59%

Dew point: 19 °F

Location of Warminster TownshipLocation

Historic Weather in Warminster Township — Graph

°F

Warminster Township temperature yesterday

Maximum temperature yesterday: 36 °F (at 3:54 PM)
Minimum temperature yesterday: 30 °F (at 1:54 AM)
Average temperature yesterday: 33 °F

Past Weeks' High & Low Weather Summary

 TemperatureHumidityPressure
High41 °F (Jan 19, 11:54 AM)100% (Jan 12, 7:54 AM)30.69 "Hg (Jan 12, 7:54 AM)
Low10 °F (Jan 17, 6:54 AM)27% (Jan 17, 2:54 PM)29.31 "Hg (Jan 24, 3:03 PM)
Average28 °F74%30.12 "Hg
* Reported Jan 10 8:54 PM — Jan 25 8:54 PM, Warminster Township, Weather by CustomWeather, © 2014

Note: Actual official high and low records may vary slightly from our data, if they occured in-between our weather recording intervals... More about our weather records

Advertising

Warminster Township weather history for previous 24 hours

 ConditionsComfort  
Time TempWeatherWind HumidityBarometerVisibility
8:54 PM
Jan 25
33 °FOvercast.8 mph56%29.93 "Hg10 mi
7:54 PM34 °FMostly cloudy.6 mph82%29.92 "Hg10 mi
6:54 PM33 °FOvercast.No wind88%29.91 "Hg10 mi
5:54 PM36 °FMostly cloudy.No wind75%29.87 "Hg10 mi
4:54 PM37 °FSunny.No wind73%29.84 "Hg10 mi
3:54 PM38 °FPartly sunny.6 mph70%29.82 "Hg10 mi
2:54 PM38 °FOvercast.8 mph73%29.82 "Hg10 mi
1:54 PM40 °FMostly cloudy.7 mph70%29.79 "Hg10 mi
12:54 PM38 °FOvercast.7 mph73%29.80 "Hg10 mi
11:54 AM40 °FMore clouds than sun.8 mph68%29.81 "Hg10 mi
10:54 AM37 °FOvercast.7 mph76%29.79 "Hg10 mi
9:54 AM39 °FSunny.12 mph67%29.78 "Hg10 mi
8:54 AM36 °FBroken clouds.7 mph73%29.75 "Hg10 mi
7:54 AM33 °FBroken clouds.7 mph78%29.74 "Hg10 mi
6:54 AM32 °FOvercast.7 mph82%29.71 "Hg10 mi
5:54 AM31 °FPassing clouds.6 mph82%29.68 "Hg10 mi
4:54 AM32 °FPassing clouds.6 mph79%29.66 "Hg10 mi
3:54 AM32 °FPassing clouds.6 mph79%29.64 "Hg10 mi
2:54 AM32 °FMostly cloudy.7 mph79%29.63 "Hg10 mi
1:54 AM32 °FPassing clouds.5 mph75%29.62 "Hg10 mi
12:54 AM32 °FMostly cloudy.10 mph75%29.58 "Hg10 mi
11:54 PM
Jan 24
32 °FOvercast.8 mph75%29.55 "Hg10 mi
10:54 PM33 °FMostly cloudy.8 mph70%29.54 "Hg10 mi
Weather by CustomWeather, © 2014

See weather overviewHow to use our weather pages